Location: LDNL
(36.4545°S, 141.6685°E)
Time: 09:53:27
(UTC+10:00)

Vanguard 1 - Pass Details

Date: 14 August 2022
Orbit: 649 x 3832 km, 34.2° (Epoch: 27 September)

Event Time Altitude Azimuth Distance (km) Brightness Sun altitude
Rises 21:01:23 0° 265° (W) 3,173 13.7 -37.1°
Reaches altitude 10° 21:04:06 10° 276° (W) 2,112 12.5 -37.6°
Enters shadow 21:05:07 15° 284° (WNW) 1,753 11.9 -37.8°
